Wind_Speed
44 47 51 56 62 66 71 71 70 66 66 73 74 73 73 73 65 66 58 53 56 61 60 65 70 77 80 75 67 77 78 78 78 66 67 69 72 72 74 67 74 75 64
42 46 49 53 58 64 68 71 72 71 68 69 72 77 76 73 72 73 70 65 61 55 55 55 47 52 58 71 76 74 69 84 80 82 86 83 79 75 75 62 69 68 80
42 45 47 51 56 62 65 71 74 76 78 76 73 73 76 77 74 71 69 69 65 65 64 57 64 56 54 55 62 72 75 73 82 81 77 75 84 81 73 72 71 66 71
44 45 51 54 58 62 66 71 75 75 74 76 76 72 69 69 70 69 66 66 67 67 63 57 52 57 57 56 59 62 67 67 69 77 83 92 91 71 82 77 79 68 62
43 50 53 56 59 61 60 58 57 56 55 53 54 57 58 60 61 62 63 65 62 62 58 52 50 52 49 53 51 57 67 64 69 73 84 84 81 90 81 64 68 64 59
46 50 52 56 54 55 52 49 48 45 45 40 38 40 43 46 53 60 62 58 59 55 51 49 49 52 54 52 58 63 65 60 62 60 68 64 67 69 71 66 55 55 50
42 47 52 56 53 46 44 44 41 45 36 30 35 35 34 39 42 45 47 53 52 52 51 49 50 42 41 44 49 48 46 46 47 51 58 59 60 56 50 45 48 46 37
40 46 53 50 43 38 38 36 36 40 36 46 31 23 32 34 34 39 44 48 48 49 52 49 42 39 38 38 33 32 35 41 46 50 53 53 50 48 43 38 31 22 23
39 46 47 41 34 33 31 29 29 27 27 29 28 31 26 26 28 32 34 39 46 47 45 45 39 34 35 32 36 38 39 42 42 45 47 46 38 28 17 13 14 14 13
36 42 38 33 30 24 21 22 21 23 25 25 25 24 28 20 24 27 29 31 33 36 41 41 41 39 39 39 38 41 42 43 42 40 30 18 9 7 6 6 8 11 15
32 38 32 29 25 20 22 20 18 17 17 19 22 24 24 26 28 26 24 25 32 31 31 29 35 32 32 34 36 33 31 26 15 7 0 2 2 4 7 7 11 15 19
28 32 29 28 26 21 19 14 16 16 17 16 16 17 15 17 11 13 16 17 20 24 22 19 22 24 25 27 25 17 11 8 6 4 2 6 8 11 11 14 19 21 24
27 27 25 23 23 22 19 14 10 10 8 8 7 4 4 8 5 4 7 10 14 22 26 23 23 22 19 16 14 11 8 5 5 7 10 11 14 16 18 22 26 28 31
27 26 23 22 22 21 21 20 14 10 7 6 8 8 7 6 6 9 16 24 25 19 17 16 14 14 13 12 9 8 8 7 9 10 12 13 16 22 26 29 31 36 42
26 25 22 20 20 19 17 14 13 3 2 1 1 3 5 3 4 5 7 10 13 15 13 10 8 9 11 10 9 7 8 10 12 14 16 19 22 25 29 34 40 45 48
24 23 23 20 18 18 18 17 12 7 5 7 6 3 3 2 1 2 8 12 11 8 6 5 6 7 7 8 11 12 13 14 16 19 22 25 28 31 35 41 45 48 51
22 23 21 19 17 17 17 17 14 11 6 7 10 8 9 10 10 8 10 9 10 10 8 7 6 4 3 6 9 14 19 22 24 26 28 29 32 36 40 43 47 52 57
17 18 22 21 20 16 14 16 15 14 10 6 4 5 11 12 13 13 13 12 12 9 6 4 7 12 13 14 14 18 23 26 27 29 30 33 37 39 41 45 50 55 61
18 19 21 20 19 20 17 14 14 13 13 12 7 5 5 9 15 16 17 16 15 15 14 15 16 18 19 21 22 23 25 28 30 32 33 36 38 42 46 51 55 60 66
21 23 22 23 21 20 20 18 13 14 11 13 14 12 10 11 14 17 20 20 20 20 22 22 23 25 26 28 31 32 32 31 33 34 35 39 43 48 51 52 58 64 69
24 24 23 22 22 22 19 21 22 18 16 14 15 18 17 16 17 19 21 23 25 26 27 28 30 31 30 31 30 33 36 37 38 39 42 45 48 53 58 59 60 65 66
27 23 25 26 22 26 26 28 24 26 23 19 19 20 22 21 21 23 27 29 30 30 31 33 34 35 33 34 35 36 36 37 40 43 44 48 53 58 62 61 67 67 69
31 21 34 37 28 28 30 30 30 27 25 25 22 23 26 26 23 23 27 31 33 32 31 33 33 33 35 34 34 35 37 38 43 47 48 51 55 55 60 62 62 67 70
25 35 35 35 40 44 35 40 36 32 30 25 24 25 27 28 30 32 29 27 30 34 34 31 33 34 35 37 37 37 38 44 46 47 51 55 57 61 60 62 66 68 58
40 42 41 42 40 41 42 44 45 46 28 34 33 29 31 32 37 39 35 34 35 36 37 38 39 47 41 41 39 40 43 45 48 49 53 55 58 57 63 66 65 53 45
46 49 49 50 54 51 54 45 38 33 35 36 44 32 35 37 38 40 41 33 35 34 37 40 37 39 46 42 43 41 44 49 53 51 51 52 55 60 63 57 46 40 34
Wind_Direction
269 270 270 270 272 272 273 278 280 280 278 272 269 267 267 268 264 269 266 270 270 266 273 271 264 261 259 260 261 255 258 259 267 267 260 264 266 270 268 269 267 270 271
278 278 278 278 278 278 278 278 280 280 279 274 271 269 267 265 262 263 262 265 263 265 266 266 263 265 257 254 261 263 259 257 259 263 266 266 265 268 271 269 264 265 275
282 284 282 281 280 279 279 279 280 281 279 276 271 269 268 266 263 260 259 259 258 261 264 265 272 264 270 257 255 255 253 256 257 260 261 256 269 272 261 263 265 274 270
290 290 291 288 286 284 282 282 278 281 276 272 270 269 266 264 261 259 258 257 256 258 262 265 265 267 273 263 251 252 253 257 259 256 256 262 268 278 277 266 266 266 260
292 294 296 296 295 293 288 281 281 280 280 276 271 264 262 262 259 254 249 255 255 257 260 261 259 257 253 263 263 266 259 254 253 256 260 264 262 271 266 259 264 259 254
296 301 305 304 299 295 285 276 277 277 273 272 267 262 260 258 255 253 250 251 253 252 255 257 259 257 255 252 251 254 253 255 255 258 257 261 259 258 266 263 250 250 255
309 310 309 306 301 290 284 276 273 264 276 267 263 260 259 260 256 255 253 248 248 246 247 249 250 259 256 252 245 247 253 254 254 253 253 256 260 259 252 251 252 253 259
313 315 313 308 303 294 288 282 271 273 281 284 283 265 260 262 258 249 244 239 242 245 244 251 245 255 259 252 245 248 249 251 251 253 255 252 246 247 247 252 263 284 308
319 320 317 311 305 295 291 284 276 280 281 287 283 273 266 257 257 255 253 248 239 244 244 237 242 241 244 254 250 254 257 250 245 240 239 239 241 246 266 297 311 315 314
322 324 320 316 307 301 299 295 285 278 280 281 284 273 274 268 260 252 250 244 246 245 234 240 252 248 242 253 258 251 249 245 240 236 233 242 281 319 327 304 301 298 300
325 326 329 334 325 311 300 296 289 279 275 275 278 269 269 268 269 254 246 249 236 246 242 247 250 242 246 247 246 241 234 224 210 210 197 10 285 243 227 268 284 292 294
325 329 333 340 341 329 323 287 284 280 276 272 274 269 277 272 259 247 238 237 233 231 244 230 227 226 222 220 218 188 157 135 117 109 207 240 245 240 267 287 297 303 305
322 329 329 338 343 357 9 349 320 344 306 300 289 325 5 4 333 268 192 189 191 191 192 178 181 175 149 136 127 121 117 141 183 224 241 250 238 259 276 286 293 296 297
322 324 329 323 334 345 359 8 359 330 345 79 97 87 90 89 78 116 167 159 153 143 134 109 104 111 121 127 142 162 185 211 233 247 253 270 272 272 285 292 297 302 305
320 321 322 325 328 338 342 354 3 2 247 235 68 37 356 327 216 11 27 28 55 76 83 107 138 164 182 191 210 224 236 249 257 281 282 282 289 292 295 299 301 299 300
315 319 318 322 328 331 337 337 338 325 303 271 264 259 287 233 272 106 118 121 127 131 138 153 164 190 223 242 249 252 259 278 283 288 289 289 291 294 294 292 296 301 303
316 314 316 313 315 324 329 327 326 326 298 268 258 236 230 229 239 190 162 161 156 150 147 147 151 174 236 256 259 258 262 268 273 280 287 286 289 292 295 299 300 303 305
309 313 310 313 310 306 315 315 317 311 301 284 273 253 247 234 225 206 192 186 185 200 211 245 289 304 311 312 295 279 280 283 283 286 289 290 295 300 301 300 303 304 305
296 305 305 301 305 302 292 299 312 316 299 285 253 258 249 218 217 216 213 218 226 234 246 273 289 297 299 299 296 288 287 291 297 293 292 295 296 298 299 304 306 308 309
282 294 302 297 297 292 290 282 278 288 291 286 287 276 251 248 232 234 234 241 249 256 267 276 282 291 296 298 298 291 286 297 300 297 302 300 301 304 307 307 309 307 308
274 287 291 300 300 292 288 290 281 270 273 276 275 275 273 267 263 259 259 261 265 270 275 280 284 288 292 295 291 298 309 304 303 306 305 304 306 307 306 304 304 307 308
262 269 272 280 289 292 281 279 279 270 263 259 267 270 275 267 267 265 264 264 266 269 273 278 282 284 286 288 295 296 298 300 299 298 300 305 305 305 308 303 304 305 310
250 288 306 279 279 294 285 273 273 267 258 261 260 260 266 275 275 266 263 268 272 271 267 267 277 284 286 287 290 292 294 298 299 301 300 299 302 306 307 306 305 309 309
253 255 279 278 284 285 281 286 280 263 246 249 255 263 270 272 272 271 269 262 263 269 277 286 283 282 286 290 289 290 296 297 297 297 301 304 304 305 307 307 308 308 310
254 263 267 276 269 280 269 284 270 266 262 254 262 266 261 262 268 269 265 269 271 274 271 273 269 271 277 289 291 290 290 292 295 298 303 303 304 305 306 306 308 309 307
265 269 271 274 276 274 274 275 261 249 266 265 261 252 263 263 264 263 265 272 282 274 278 268 273 265 278 284 288 288 293 293 294 301 303 304 305 306 308 309 309 309 310
Height
5755 5754 5753 5750 5746 5742 5736 5731 5730 5729 5730 5731 5732 5735 5738 5741 5745 5747 5752 5753 5757 5758 5758 5760 5762 5766 5770 5774 5775 5778 5778 5780 5776 5776 5777 5782 5784 5786 5784 5788 5786 5786 5786
5744 5742 5740 5737 5734 5729 5723 5718 5712 5709 5709 5710 5711 5712 5715 5720 5725 5729 5735 5739 5740 5743 5745 5747 5747 5749 5752 5757 5760 5760 5759 5762 5762 5763 5759 5762 5766 5768 5768 5769 5771 5772 5771
5732 5730 5727 5724 5721 5715 5710 5703 5698 5693 5688 5686 5690 5691 5694 5697 5704 5709 5716 5720 5724 5727 5730 5734 5734 5736 5739 5740 5740 5745 5743 5742 5742 5744 5745 5743 5750 5752 5751 5754 5756 5755 5756
5720 5716 5713 5709 5704 5699 5693 5687 5680 5674 5669 5667 5667 5669 5672 5676 5683 5689 5696 5701 5706 5710 5713 5716 5718 5720 5723 5725 5725 5727 5725 5726 5729 5727 5728 5730 5734 5736 5736 5737 5740 5742 5741
5707 5703 5699 5692 5685 5679 5672 5667 5662 5657 5652 5649 5648 5650 5653 5656 5662 5669 5676 5683 5688 5693 5697 5700 5703 5704 5705 5710 5710 5709 5709 5712 5714 5713 5715 5717 5719 5720 5721 5722 5722 5723 5724
5695 5688 5681 5674 5667 5660 5654 5651 5647 5644 5640 5638 5637 5637 5639 5642 5646 5651 5657 5664 5671 5677 5681 5685 5686 5687 5689 5689 5693 5695 5694 5695 5695 5698 5703 5702 5703 5706 5706 5705 5706 5709 5709
5681 5674 5666 5657 5649 5644 5639 5636 5634 5632 5630 5629 5627 5627 5628 5630 5632 5637 5642 5648 5654 5659 5665 5669 5672 5673 5674 5675 5676 5679 5680 5681 5683 5684 5686 5687 5689 5690 5692 5694 5695 5695 5694
5670 5662 5653 5643 5635 5630 5627 5624 5623 5622 5621 5620 5618 5616 5619 5620 5622 5625 5629 5634 5638 5643 5649 5655 5657 5658 5661 5664 5665 5665 5665 5668 5670 5672 5673 5676 5677 5678 5679 5680 5683 5683 5683
5659 5652 5642 5633 5626 5621 5617 5615 5614 5614 5613 5612 5611 5610 5610 5612 5613 5614 5617 5620 5625 5630 5634 5640 5644 5647 5648 5652 5653 5655 5655 5656 5658 5660 5662 5665 5665 5667 5668 5669 5673 5676 5678
5652 5644 5635 5627 5619 5615 5611 5609 5607 5606 5606 5605 5604 5603 5604 5604 5605 5607 5608 5610 5616 5620 5623 5628 5631 5634 5637 5641 5642 5644 5647 5648 5650 5651 5653 5654 5657 5659 5663 5666 5669 5671 5670
5646 5638 5630 5622 5615 5611 5608 5604 5602 5601 5600 5600 5599 5598 5598 5597 5598 5599 5600 5602 5606 5610 5614 5617 5620 5623 5626 5629 5633 5635 5637 5640 5641 5644 5647 5650 5654 5657 5660 5662 5662 5662 5662
5640 5634 5627 5621 5614 5608 5602 5601 5599 5597 5596 5594 5595 5593 5593 5592 5591 5591 5593 5596 5598 5602 5606 5609 5612 5615 5618 5622 5626 5628 5631 5635 5638 5642 5646 5649 5652 5654 5655 5655 5655 5655 5654
5637 5631 5625 5620 5616 5609 5604 5600 5597 5595 5593 5593 5591 5590 5589 5589 5590 5591 5592 5594 5598 5602 5604 5606 5610 5613 5615 5619 5623 5627 5631 5635 5638 5642 5645 5646 5648 5649 5650 5649 5648 5647 5646
5633 5629 5624 5619 5614 5610 5604 5600 5597 5596 5596 5597 5596 5596 5595 5595 5597 5598 5599 5599 5599 5602 5604 5607 5610 5613 5617 5621 5626 5629 5632 5635 5637 5639 5641 5642 5642 5643 5642 5640 5639 5635 5634
5629 5625 5622 5617 5613 5609 5606 5604 5601 5599 5599 5599 5599 5598 5598 5599 5600 5600 5601 5599 5600 5603 5606 5610 5614 5618 5622 5624 5627 5629 5631 5632 5634 5635 5635 5635 5635 5634 5632 5630 5627 5625 5621
5626 5622 5619 5616 5612 5609 5607 5605 5603 5602 5601 5600 5600 5600 5600 5600 5600 5601 5603 5604 5607 5610 5612 5615 5617 5620 5622 5623 5624 5625 5627 5628 5629 5629 5629 5628 5627 5625 5623 5620 5616 5612 5608
5621 5619 5615 5613 5610 5607 5606 5604 5602 5601 5601 5601 5600 5600 5601 5601 5602 5603 5605 5607 5609 5611 5613 5615 5617 5618 5619 5620 5621 5621 5623 5624 5624 5623 5622 5620 5617 5615 5612 5607 5602 5597 5592
5616 5613 5611 5609 5607 5605 5603 5602 5601 5600 5598 5596 5598 5598 5599 5600 5601 5603 5605 5607 5608 5610 5612 5613 5614 5615 5614 5615 5616 5617 5617 5616 5615 5613 5611 5609 5606 5603 5599 5595 5590 5583 5575
5611 5608 5606 5604 5603 5601 5600 5599 5598 5598 5598 5597 5595 5595 5597 5598 5599 5601 5603 5605 5606 5607 5608 5609 5609 5609 5610 5610 5609 5609 5607 5606 5606 5603 5601 5598 5595 5591 5587 5581 5575 5568 5560
5605 5603 5602 5600 5598 5597 5595 5595 5594 5594 5594 5595 5596 5594 5594 5595 5596 5598 5600 5601 5602 5602 5603 5603 5604 5603 5602 5602 5601 5600 5599 5598 5595 5593 5592 5589 5585 5580 5575 5569 5562 5555 5547
5598 5597 5596 5594 5593 5591 5591 5590 5589 5589 5589 5589 5590 5591 5592 5592 5593 5594 5595 5595 5596 5596 5597 5596 5595 5594 5595 5593 5591 5590 5591 5587 5585 5583 5581 5577 5573 5568 5562 5555 5548 5539 5529
5587 5585 5585 5586 5584 5585 5585 5584 5584 5583 5583 5582 5584 5585 5583 5587 5589 5589 5588 5589 5589 5589 5589 5588 5588 5588 5587 5586 5585 5583 5582 5580 5578 5574 5570 5566 5560 5555 5548 5540 5532 5524 5514
5573 5572 5573 5578 5576 5574 5575 5575 5576 5577 5575 5575 5575 5576 5576 5577 5579 5581 5581 5581 5581 5582 5582 5581 5581 5581 5578 5577 5576 5574 5572 5569 5566 5562 5558 5552 5546 5539 5532 5524 5516 5507 5497
5569 5571 5570 5569 5566 5566 5565 5566 5567 5566 5566 5566 5568 5568 5568 5567 5568 5569 5571 5572 5570 5570 5570 5572 5571 5570 5568 5567 5565 5563 5561 5556 5553 5549 5545 5539 5532 5525 5518 5509 5500 5491 5483
5560 5559 5558 5558 5557 5558 5558 5556 5556 5555 5555 5556 5556 5556 5558 5559 5556 5558 5559 5559 5562 5560 5560 5560 5560 5559 5557 5556 5556 5553 5549 5546 5542 5538 5532 5525 5518 5510 5503 5494 5484 5477 5471
5547 5545 5544 5544 5543 5540 5542 5544 5544 5540 5541 5544 5544 5545 5548 5547 5546 5547 5546 5549 5549 5549 5550 5549 5548 5547 5547 5545 5543 5540 5538 5533 5530 5524 5519 5512 5505 5496 5488 5479 5471 5467 5462